User: anonymous
Location: Bismarck
(46.7731°N, 100.8200°W)
Time: 14:08:02
(UTC-05:00)
Language:

Landsat 7 - Orbit

View from above orbital plane
View from above orbital plane
View from above satellite
View from above satellite

Ground track
Ground track

The orbit data is extracted from the following two-line orbital elements,

1 25682U 99020A   14244.31120412  .00000383  00000-0  95035-4 0  5617
2 25682 098.2095 312.8908 0000729 097.6944 262.4365 14.57108140818079
Epoch (UTC): 01 September 2014 07:28:08
Eccentricity: 0.0000729
inclination: 98.2095°
perigee height: 702 km
apogee height: 703 km
right ascension of ascending node: 312.8908°
argument of perigee: 97.6944°
revolutions per day: 14.57108140
mean anomaly at epoch: 262.4365°
orbit number at epoch: 81807

The dashed part of the orbit path shows where the satellite is in the earth's shadow,  

DLR